Starlink 30137

operational
NORAD ID: 56843 Int'l Des: 2023-079 Owner: SPXS Country: US Constellation: starlink
LEOCIRCULAR

Starlink 30137について

説明を読み込み中...

リアルタイム位置

3D地球を読み込み中...

次回通過

高度履歴

Altitude vs Time

uPlot chart will show altitude changes over time

軌道要素

1 56843U 23079W 25353.24748107 .00001358 00000-0 11553-3 0 9993
2 56843 43.0021 184.3900 0001237 274.8353 85.2348 15.02540962140782
Epoch: Dec 19, 2025 • Age: 19 hours

現在のステータス

高度 562.3 km
速度 7.59 km/s
衛星直下点 39.97°N, 133.54°E
打ち上げ日 Jun 4, 2023
運用期間 2.5 years
タイプ internet

技術仕様

分類 Payload
質量 730.00 kg
乾燥質量 700.00 kg
総質量 730.00 kg
長さ 0.30 m
直径 4.10 m
スパン 29.00 m
形状 Box + pan
製造者 SPXS
バスタイプ Starlink V2M
フェーズステータス In Orbit
所有者/国 SPXS/US

大規模コンステレーション

Loading constellations...